Regional Weather Roundup
Issued by NWS Charleston, WV

Home | Current Version | Previous Version | Graphics & Text | Print | Product List | Glossary On
Versions: 1 2 3 4 5 6 7 8 9 10 11 12 13 14 15 16 17 18 19 20 21 22 23 24 25 26 27 28 29 30 31 32 33 34 35 36 37 38 39 40 41 42 43 44 45 46 47 48 49 50
000
ASUS41 KRLX 020810
RWRRLX
West Virginia Regional Weather Roundup
National Weather Service Charleston WV
300 AM EST FRI DEC 02 2016

Note: "fair" indicates few or no clouds below 12,000 feet with no
significant weather and/or obstructions to visibility.

WVZ003-020900-
Northern Panhandle of West Virginia

CITY           SKY/WX    TMP DP  RH WIND       PRES   REMARKS
WHEELING       CLOUDY    36  26  67 W8        30.00R
$$

WVZ009-020900-
Northwest West Virginia

CITY           SKY/WX    TMP DP  RH WIND       PRES   REMARKS
PARKERSBURG    CLOUDY    39  28  64 SW6       30.08R
$$

WVZ006-020900-
Western West Virginia

CITY           SKY/WX    TMP DP  RH WIND       PRES   REMARKS
HUNTINGTON     CLEAR     34  28  79 SW5       30.08R
$$

WVZ015-020900-
West Central West Virginia

CITY           SKY/WX    TMP DP  RH WIND       PRES   REMARKS
CHARLESTON     MOCLDY    39  29  67 SW9       30.07R
$$

WVZ022-031-020900-
North Central West Virginia

CITY           SKY/WX    TMP DP  RH WIND       PRES   REMARKS
CLARKSBURG     CLOUDY    38  27  64 W7        30.03S
MORGANTOWN     CLOUDY    39  26  59 SW5       30.02S
$$

WVZ025-035-042-045-020900-
Southern West Virginia

CITY           SKY/WX    TMP DP  RH WIND       PRES   REMARKS
BECKLEY        CLOUDY    36  27  69 W5        30.03R
LOGAN            N/A     36  28  75 CALM      30.06S
BLUEFIELD      PTCLDY    31  25  78 W6        30.04R
LEWISBURG      CLOUDY    37  28  69 CALM      30.02S
$$

WVZ047-020900-
Northern Mountains of West Virginia

CITY           SKY/WX    TMP DP  RH WIND       PRES   REMARKS
ELKINS         CLOUDY    36  25  64 MISG      30.02R
$$

WVZ052-020900-
Eastern Panhandle of West Virginia

CITY           SKY/WX    TMP DP  RH WIND       PRES   REMARKS
MARTINSBURG    CLOUDY    43  23  45 NW17G33   30.00R
PETERSBURG     CLOUDY    43  29  57 CALM      30.02R
$$




USA.gov is the U.S. government's official web portal to all federal, state and local government web resources and services.